Location: Allmandie
(48.5856°N, 8.4661°E)
Time: 13:53:49
(UTC+00:00)

Daily predictions for brighter satellites

Satellite Brightness Start Highest point End
(mag) Time Altitude Azimuth Time Altitude Azimuth Time Altitude Azimuth
Cosmos 1092 Rocket 4.3 15:56:13 10° N 16:02:23 48° ENE 16:08:27 10° SSE
SJ-7 4.5 16:00:19 10° SSE 16:04:30 72° ENE 16:08:45 10° N
MOS 1 Rocket 3.9 16:01:05 10° N 16:06:02 62° WNW 16:10:38 10° SSW
COSMOS 2455 3.6 16:01:46 10° S 16:07:10 36° ESE 16:12:37 10° NE
Cosmos 2322 Rocket 3.7 16:09:57 10° N 16:13:40 17° NE 16:17:24 10° ENE
Cosmos 1697 Rocket 2.7 16:08:25 10° NNW 16:14:05 87° ENE 16:19:42 10° SSE
CZ-4C R/B 3.1 16:08:42 10° NW 16:15:31 56° NE 16:23:35 10° ESE
Cosmos 468 Rocket 4.0 16:13:19 10° SSW 16:18:28 78° ESE 16:23:43 10° NNE
Cosmos 1980 Rocket 2.3 16:13:42 10° NNW 16:19:18 54° ENE 16:24:48 10° SE
NOAA 12 4.1 16:16:21 10° SSE 16:21:40 80° ENE 16:27:00 10° NNW
ATLAS CENTAUR R/B 3.2 16:13:58 10° SW 16:24:42 71° SE 16:28:48 12° ENE
COSMO-SKYMED 1 4.3 16:22:41 10° NE 16:25:06 15° E 16:27:32 10° ESE
Cosmos 1898 Rocket 3.7 16:20:02 10° NNW 16:25:18 77° WSW 16:30:29 10° SSE
Meteor PRIRODA 3.7 16:21:58 10° SSE 16:25:36 85° WSW 16:29:15 10° NNW
Cosmos 2369 3.7 16:20:21 10° NNW 16:26:08 74° ENE 16:31:50 10° SE
Cosmos 1933 3.4 16:23:48 10° S 16:27:47 60° E 16:31:46 10° NNE
Cosmos 1633 Rocket 4.0 16:25:21 10° NNE 16:29:05 26° ENE 16:32:49 10° SE
USA 305 3.6 16:25:08 10° WNW 16:29:10 40° N 16:32:38 13° ENE
FengYun 1-2 T 4.2 16:24:40 10° SSE 16:30:14 79° ENE 16:35:48 10° NNW
Cosmos 2034 Rocket 4.1 16:24:16 10° S 16:30:25 83° W 16:36:38 10° N
CZ-4B R/B 2.9 16:26:49 10° S 16:30:48 79° WSW 16:34:37 10° NNW
NOSS 2-2 (C) 4.3 16:25:56 10° NW 16:30:59 81° NE 16:38:05 10° SE
Cosmos 1812 3.8 16:28:19 10° SE 16:31:30 25° E 16:34:41 10° NNE
CORIOLIS 4.2 16:26:38 10° SSE 16:31:56 61° ENE 16:37:19 10° N
Cosmos 1818 4.0 16:26:48 10° NNW 16:32:00 40° NE 16:37:08 10° ESE
SL-16 R/B 3.2 16:28:35 10° NNW 16:33:18 26° NE 16:37:59 10° E
YAOGAN 1 4.5 16:36:54 12° NE 16:36:54 12° NE 16:37:49 10° NNE
AQUARIUS 4.2 16:32:02 10° SSE 16:36:27 61° ENE 16:40:54 10° N
Cosmos 1151 Rocket 3.9 16:33:00 10° SSE 16:36:43 28° E 16:40:28 10° NNE
Cosmos 2082 Rocket 2.5 16:32:10 10° S 16:37:36 48° ESE 16:43:01 10° NE
USA 267 3.4 16:32:04 11° ENE 16:38:20 69° SE 16:44:50 10° SW
SMAP 3.0 16:36:38 10° SSE 16:41:17 79° ENE 16:45:58 10° NNW
Meteor 2-14 Rocket 4.4 16:35:53 10° N 16:42:00 71° ENE 16:48:03 10° SSE
Meteor 1-14 Rocket 4.5 16:37:47 10° N 16:43:29 51° ENE 16:49:15 10° SSE
Cosmos 1743 Rocket 4.4 16:41:19 10° NNW 16:45:32 53° W 16:49:45 10° S
Cosmos 2333 Rocket 3.9 16:45:05 10° N 16:47:54 14° NNE 16:49:04 13° NE
ARGOS 3.7 16:43:10 10° SE 16:47:59 34° ENE 16:52:49 10° N
MOS 1-B 4.4 16:42:26 10° SE 16:48:03 55° ENE 16:53:41 10° N
Cosmos 1763 Rocket 4.0 16:43:17 10° SW 16:48:17 59° WNW 16:53:23 10° NNE
Cosmos 1634 Rocket 4.0 16:42:56 10° S 16:49:12 69° E 16:55:30 10° NNE
Cosmos 2278 3.7 16:43:41 10° NNW 16:49:23 66° ENE 16:55:02 10° SE
Cosmos 2026 Rocket 3.9 16:43:54 10° N 16:50:05 85° E 16:56:09 10° S
Cosmos 1602 4.1 16:46:43 10° NNW 16:50:34 68° W 16:54:24 10° S
CZ-4B DEB 4.1 16:45:47 10° SSE 16:51:17 75° ENE 16:56:46 10° NNW
Cosmos 44 Rocket 3.5 16:49:21 10° NNW 16:54:11 50° NE 16:58:50 10° ESE
SeaSat 1 4.4 16:51:01 10° N 16:54:44 22° NW 16:58:25 10° W
Cosmos 1833 Rocket 3.0 16:49:42 10° SW 16:55:17 66° WNW 17:00:56 10° NNE
CZ-2C R/B 4.1 16:51:48 10° S 16:56:26 44° W 17:01:00 10° NNW
Cosmos 841 Rocket 3.4 16:51:25 10° SSW 16:56:33 78° ESE 17:01:44 10° NNE
Cosmos 1666 Rocket 3.6 16:52:31 10° N 16:56:56 58° ENE 17:01:16 10° SSE
Okean O Rocket 2.2 16:53:58 10° SE 16:58:00 34° ENE 17:02:01 10° N
MOS 1-B Rocket 4.3 16:52:17 10° NNE 16:58:04 49° E 17:04:38 10° S
Cosmos 1470 Rocket 4.2 16:56:12 10° N 17:00:14 32° ENE 17:04:16 10° SE
Cosmos 1328 Rocket 4.1 16:56:18 10° SSE 17:00:21 36° E 17:03:23 16° NNE
H-2A R/B 1.9 16:56:25 10° SSE 17:01:30 65° ENE 17:06:28 10° N
USA 306 3.4 16:57:28 10° WNW 17:01:34 44° NNE 17:03:36 25° ENE
Cosmos 1937 Rocket 4.4 16:56:50 10° NNW 17:02:01 53° WSW 17:07:09 10° S
Cosmos 1939 Rocket 3.7 16:58:47 10° S 17:02:48 55° W 17:06:50 10° NNW
COSMOS 2406 3.4 16:58:41 10° SW 17:04:26 72° WNW 17:10:09 10° NNE
Cosmos 2219 Rocket 4.0 17:01:47 10° N 17:04:33 14° NNE 17:04:46 13° NNE
ISS -2.5 17:01:39 10° WNW 17:04:52 41° SSW 17:08:05 10° SE
ATLAS 2AS CENTAUR R/B 4.2 17:00:25 10° NW 17:06:31 25° N 17:10:37 16° NE
Cosmos 372 Rocket 4.3 17:01:40 10° NNW 17:06:54 72° WSW 17:12:07 10° SSE
CZ-2C R/B 2.9 17:02:59 11° NNE 17:07:40 40° E 17:12:31 10° SSE
Meteor 2-21 Rocket 4.4 17:01:43 10° N 17:07:51 82° E 17:13:55 10° SSE
Cosmos 1125 Rocket 3.9 17:03:25 10° N 17:08:21 39° ENE 17:13:16 10° SE
Cosmos 1500 3.7 17:06:45 10° NNW 17:10:27 61° W 17:14:07 10° S
USA 234 3.4 17:06:16 10° SE 17:12:49 77° SW 17:19:23 10° WNW
SKYMED 2 4.0 17:11:18 23° NE 17:13:35 41° E 17:17:41 10° S
Cosmos 1782 3.3 17:12:55 10° SSW 17:16:51 59° WNW 17:20:49 10° N
Sich 1 4.0 17:13:53 10° NNW 17:18:02 48° W 17:22:11 10° SSW
CZ-2D R/B 3.3 17:14:21 10° S 17:18:11 78° WSW 17:22:01 10° NNW
Cosmos 1655 Rocket 4.2 17:12:28 10° N 17:18:42 50° ENE 17:24:51 10° SSE
CZ-4B R/B 3.0 17:15:07 10° SSE 17:20:30 72° ENE 17:25:49 10° NNW
USA 307 3.3 17:17:07 10° WNW 17:21:15 48° NNE 17:22:25 37° ENE
Cosmos 2180 Rocket 4.5 17:16:38 10° S 17:22:51 62° E 17:29:01 10° NNE
Meteor 2-6 Rocket 4.2 17:17:25 10° S 17:23:02 60° E 17:28:31 10° NNE
SJ-11-01 4.2 17:20:07 10° SSE 17:24:48 63° ENE 17:29:30 10° N
ATLAS 5 CENTAUR R/B 2.1 17:18:17 10° NW 17:25:39 55° NNE 17:26:27 43° E
PAYLOAD B 4.4 17:21:08 10° S 17:26:44 75° WSW 17:32:21 10° NNW
deb Chang Zheng 4 3.4 17:26:18 10° SSE 17:30:36 80° ENE 17:34:56 10° NNW
ERBS 4.2 17:28:59 10° NW 17:30:53 18° N 17:30:53 18° N
Cosmos 2360 Rocket 2.8 17:32:12 10° NNW 17:37:20 34° NE 17:37:21 34° NE
Lacrosse 5 rocket 1.2 17:34:04 10° NW 17:38:01 83° SW 17:39:14 44° SE
Cosmos 1666 3.5 17:35:55 10° NNW 17:39:32 50° W 17:43:08 10° S
ATLAS CENTAUR R/B 4.0 17:38:53 10° NNW 17:40:11 11° N 17:41:01 11° N
USA 308 3.0 17:39:43 10° WNW 17:43:56 56° NNE 17:44:08 55° NNE
Cosmos 1515 Rocket 3.6 17:40:35 10° S 17:44:48 56° ESE 17:44:48 56° ESE
Meteor 1-11 Rocket 3.6 17:46:43 10° N 17:52:21 73° ENE 17:58:05 10° SSE
Meteor 1-10 Rocket 4.1 17:46:47 10° S 17:52:32 75° E 17:56:15 22° NNE
COSMOS 2455 3.5 17:47:06 10° WSW 17:52:57 51° NW 17:56:40 22° NNE
COSMOS 2428 4.4 17:49:42 10° N 17:52:06 18° NNE 17:52:06 18° NNE
Cosmos 921 Rocket 2.8 17:53:44 10° SSW 17:57:55 87° ESE 17:57:55 87° ESE
Cosmos 1570 Rocket 4.4 17:53:40 10° SW 17:58:50 62° WNW 18:01:47 26° N
Cosmos 2322 Rocket 2.1 17:53:09 10° NNW 17:58:51 68° ENE 18:00:16 49° ESE
SL-08 RB Rocket 3.6 17:55:18 10° SSE 17:59:56 88° WSW 18:04:34 10° NNW
COSMO-SKYMED 1 2.8 17:59:55 33° N 18:01:44 66° WNW 18:06:02 10° SSW
Cosmos 2298 Rocket 4.2 17:56:43 10° NNW 18:02:03 74° WSW 18:07:21 10° SSE
Cosmos 1980 Rocket 4.2 17:58:15 10° NW 18:02:58 28° WSW 18:07:40 10° SSW
CZ-4C R/B 3.8 17:57:16 10° NW 18:04:17 51° WSW 18:12:22 10° SSE
Cosmos 1356 Rocket 4.4 18:01:29 10° NNW 18:04:07 38° NNW 18:04:07 38° NNW
USA 305 3.3 18:05:10 10° WNW 18:08:38 57° NW 18:08:38 57° NW
Meteor 2-15 Rocket 4.3 18:03:25 10° S 18:09:33 85° E 18:14:07 19° N
Feng Yun 1-1 Rocket 4.3 18:05:14 10° SSE 18:11:10 84° WSW 18:17:03 10° NNW
YAOGAN 1 4.2 18:14:03 24° NNW 18:14:03 24° NNW 18:15:47 10° NNW
CZ-2C R/B 3.9 18:13:33 10° SSW 18:14:25 11° S 18:14:25 11° S
Cosmos 2266 Rocket 4.3 18:11:27 10° NNW 18:17:49 70° W 18:24:11 10° S
SL-16 R/B 2.4 18:12:18 10° NNW 18:17:58 71° WSW 18:21:04 27° SSE
Cosmos 2237 Rocket 4.5 18:17:35 10° N 18:17:59 11° N 18:17:59 11° N
USA 267 3.6 18:19:25 43° NNE 18:21:17 56° NNW 18:27:38 10° W
Cosmos 2082 Rocket 3.6 18:16:42 10° WSW 18:21:52 35° NW 18:24:53 21° N
Landsat 5 4.5 18:25:10 43° WSW 18:25:10 43° WSW 18:28:08 10° SSW
ARGOS 4.4 18:23:06 10° SSW 18:28:10 41° W 18:33:17 10° NNW
GEOS 3 Rocket 3.7 18:30:35 73° NW 18:30:35 73° NW 18:35:17 10° NW
Cosmos 2333 Rocket 3.5 18:28:11 10° NNW 18:31:06 28° N 18:31:06 28° N
Okean O Rocket 3.5 18:30:27 10° SSW 18:34:22 29° W 18:38:17 10° NW
CZ-2C R/B 4.1 18:44:29 16° N 18:47:52 32° WNW 18:52:23 10° SW
Cosmos 2219 Rocket 4.0 18:44:30 10° NNW 18:46:30 21° N 18:46:30 21° N
ATLAS CENTAUR R/B 4.2 18:50:59 10° W 18:54:28 23° NW 18:54:28 23° NW
NOSS 3-4 (A) 4.3 18:50:02 10° NW 18:55:00 46° N 18:55:00 46° N
NOSS 3-4 (C) 4.3 18:50:08 10° NW 18:55:05 46° N 18:55:05 46° N
Meteor 1-27 Rocket 4.4 18:52:08 10° SSW 18:56:41 49° WSW 18:56:41 49° WSW
ATLAS 2AS CENTAUR R/B 3.9 18:52:55 10° NW 18:58:02 32° N 18:58:02 32° N
Lacrosse 5 rocket 4.5 19:14:13 10° W 19:14:52 12° W 19:14:52 12° W
Cosmos 2360 Rocket 3.7 19:16:05 10° NW 19:19:09 31° NW 19:19:09 31° NW
Cosmos 2322 Rocket 4.3 19:38:04 10° NW 19:42:10 22° W 19:42:10 22° W
